Location: Peterborough
(44.3091°N, 78.3197°W)
Time: 05:04:36
(UTC-04:00)

Vanguard 2 - Pass Details

Date: 29 March 2023
Orbit: 552 x 2926 km, 32.9° (Epoch: 04 June)

Event Time Altitude Azimuth Distance (km) Brightness Sun altitude
Rises 07:42:05 0° 254° (WSW) 6,761 11.7 6.6°
Reaches altitude 10° 07:46:46 10° 250° (WSW) 5,746 11.4 7.5°
Maximum altitude 08:03:22 53° 181° (S) 2,934 10.7 10.4°
Drops below altitude 10° 08:15:24 10° 109° (ESE) 4,282 13.6 12.6°
Sets 08:18:20 0° 105° (ESE) 4,994 13.7 13.1°
